Location: New Town
(33.2710°N, 90.7534°W)
Time: 12:25:31
(UTC+00:00)

Explorer 11/Cluster Stage 4 - Pass Details

Date: 18 May 2021
Orbit: 467 x 1257 km, 28.8° (Epoch: 14 June)

Event Time Altitude Azimuth Distance (km) Brightness Sun altitude
Rises 04:36:42 0° 273° (W) 4,169 10.6 -33.6°
Reaches altitude 10° 04:39:45 10° 267° (W) 3,225 9.9 -33.8°
Enters shadow 04:43:56 29° 248° (WSW) 2,095 8.6 -34.1°
Maximum altitude 04:47:27 44° 199° (SSW) 1,643 - -34.4°
Drops below altitude 10° 04:54:40 10° 130° (SE) 3,026 - -34.9°
Sets 04:57:28 0° 124° (SE) 3,892 - -35.1°
